Regional Weather Roundup
Issued by NWS Northern Indiana

Home | Current Version | Previous Version | Graphics & Text | Print | Product List | Glossary On
Versions: 1 2 3 4 5 6 7 8 9 10 11 12 13 14 15 16 17 18 19 20 21 22 23 24 25 26 27 28 29 30 31 32 33 34 35 36 37 38 39 40 41 42 43 44 45 46 47 48 49 50
386
ASUS43 KIWX 241500
RWRIWX

KIWX WEATHER ROUNDUP
NATIONAL WEATHER SERVICE NORTHERN INDIANA
1000 AM EST FRI FEB 24 2017

NOTE: "FAIR" INDICATES FEW OR NO CLOUDS BELOW 12,000 FEET WITH NO
SIGNIFICANT WEATHER AND/OR OBSTRUCTIONS TO VISIBILITY.

* THESE STATIONS ARE NOT UNDER NWS QUALITY CONTROL. THEY ALSO MAY NOT
  REPORT WEATHER SUCH AS PRECIPITATION OR FOG.

INZ001>027-241600-
NORTHERN INDIANA

CITY           SKY/WX    TMP DP  RH WIND       PRES   REMARKS
GARY*          CLOUDY    43  43 100 N6        29.49S FOG
MICHIGAN CITY* CLOUDY    50  50 100 N5        29.48S
KNOX*          SUNNY     61  39  44 SW17      29.48F
SOUTH BEND     SUNNY     61  56  83 S17       29.48S
ELKHART*       MOSUNNY   59  54  82 S7        29.50R
GOSHEN         MOSUNNY   62  54  74 S17       29.50R
ANGOLA*        SUNNY     55  55 100 S10       29.52F
FORT WAYNE     MOSUNNY   64  56  75 S23G31    29.53F
PERU/GRISSOM   SUNNY     65  58  80 S21G30    29.51F

$$
INZ028>050-241600-
CENTRAL INDIANA

CITY           SKY/WX    TMP DP  RH WIND       PRES   REMARKS
LAFAYETTE      MOSUNNY   65  56  72 S14G29    29.50F
KOKOMO*        SUNNY     64  57  78 S18       29.54F
MUNCIE*        MOSUNNY   66  55  67 S17G30    29.58F
INDIANAPOLIS   PTSUNNY   66  55  67 S17G28    29.57F

$$
MIZ043>046-050>051-056>058-064>065-071>073-077>080-241600-
SOUTHWEST LOWER MICHIGAN

CITY           SKY/WX    TMP DP  RH WIND       PRES   REMARKS
BATTLE CREEK   CLOUDY    47  46  97 SE5       29.52R FOG
BENTON HARBOR  CLOUDY    52  49  89 W8        29.49R FOG
COLDWATER*     CLOUDY    54  53  95 SE13G18   29.49F
HILLSDALE*     CLOUDY    46  46 100 SE12      29.55F FOG
HOLLAND        CLOUDY    39  37  92 E8        29.53R
GRAND RAPIDS   CLOUDY    36  33  89 E13       29.55S
KALAMAZOO      CLOUDY    52  49  89 W5        29.53R FOG
STURGIS*       CLOUDY    57  54  91 S12       29.50S
THREE RIVERS*  FAIR      58  55  89 S12G20    29.51R

$$
OHZ001>008-015>018-024>025-241600-
NORTHWEST OHIO

CITY           SKY/WX    TMP DP  RH WIND       PRES   REMARKS
DEFIANCE       CLOUDY    61  55  81 S15G21    29.58F
FINDLAY        CLOUDY    67  54  63 S25G32    29.62S
TOLEDO EXPRESS CLOUDY    55  55 100 S8        29.60S
TOLEDO METCALF CLOUDY    63  56  78 S16G24    29.62R
LIMA           SUNNY     65  56  72 S22G36    29.62F

$$
AND FOR LAKE MICHIGAN COASTAL AND OPEN LAKE BUOY OBSERVATIONS

STATION/POSITION TEMP    WIND        PRES    VSBY  WAVE
                 AIR SEA DIR/SP/G                  HT/PER
                 (F)     (DEG/KT/KT) (MB)    (MI)  (FT/S)
CALUMET HARBOR    39     300/  5/ 14  998.3R
MICHIGAN CITY            220/  6/  7   N/A
BURNS HARBOR      38     260/  6/  7  999.3S

$$
&&




USA.gov is the U.S. government's official web portal to all federal, state and local government web resources and services.